This is the latest recevied weather packets stored in our database for station/object KM4KMS. If no packets are shown the sender has not sent any weather packets the latest 10 day(s).
| Time | Temp. | Humidity | Pressure | Rain* | Wind** | Luminosity | Snow |
|---|---|---|---|---|---|---|---|
| 1777733963 | 12.22° C | 62% | 1017.6 hPa | 0 mm | - | 743 W/m² | - |
| 1777733660 | 12.78° C | 57% | 1017.4 hPa | 0 mm | - | 731 W/m² | - |
| 1777733356 | 12.22° C | 58% | 1017.4 hPa | 0 mm | - | 707 W/m² | - |
| 1777733053 | 11.67° C | 61% | 1017.5 hPa | 0 mm | - | 673 W/m² | - |
| 1777732749 | 12.22° C | 59% | 1017.5 hPa | 0 mm | - | 697 W/m² | - |
| 1777732446 | 11.67° C | 59% | 1017.6 hPa | 0 mm | - | 670 W/m² | - |
| 1777732144 | 10.56° C | 59% | 1017.4 hPa | 0 mm | - | 622 W/m² | - |
| 1777731840 | 11.67° C | 60% | 1017.4 hPa | 0 mm | - | 555 W/m² | - |
| 1777731537 | 11.11° C | 63% | 1017.5 hPa | 0 mm | - | 534 W/m² | - |
| 1777731235 | 10° C | 62% | 1017.5 hPa | 0 mm | - | 363 W/m² | - |
| 1777730933 | 11.11° C | 61% | 1017.4 hPa | 0 mm | - | 551 W/m² | - |
| 1777730630 | 10° C | 65% | 1017.7 hPa | 0 mm | - | 441 W/m² | - |
| 1777730326 | 10° C | 66% | 1017.5 hPa | 0 mm | - | 219 W/m² | - |
| 1777730023 | 9.44° C | 67% | 1017.2 hPa | 0 mm | - | 206 W/m² | - |
| 1777729719 | 8.89° C | 72% | 1017.4 hPa | 0 mm | - | 239 W/m² | - |
| 1777729417 | 8.89° C | 67% | 1017.3 hPa | 0 mm | - | 195 W/m² | - |
| 1777729113 | 8.89° C | 65% | 1017.3 hPa | 0 mm | - | 234 W/m² | - |
| 1777728809 | 8.33° C | 66% | 1017.3 hPa | 0 mm | - | 214 W/m² | - |
| 1777728507 | 8.89° C | 69% | 1017.2 hPa | 0 mm | - | 247 W/m² | - |
| 1777728204 | 9.44° C | 69% | 1017.3 hPa | 0 mm | - | 310 W/m² | - |
| 1777727901 | 8.89° C | 73% | 1017.1 hPa | 0 mm | - | 282 W/m² | - |
| 1777727598 | 8.89° C | 75% | 1017.4 hPa | 0 mm | - | 276 W/m² | - |
| 1777727295 | 7.78° C | 75% | 1017.1 hPa | 0 mm | - | 258 W/m² | - |
| 1777726993 | 7.78° C | 75% | 1017 hPa | 0 mm | - | 251 W/m² | - |
| 1777726689 | 8.33° C | 73% | 1016.8 hPa | 0 mm | - | 246 W/m² | - |
* Rain latest hour (hover to see other rain measurements)
** Current wind speed in m/s (hover to see current wind gust speed)